Probability
0 0 0 0 0 0 0 0 0 0 0 0 0 0 0 0 0 0 0 0 0 0 0 0 0 0 0 0 0 0 0 0 0 0 0 0 0 0 0 0 0 0 0 0
0 0 0 0 0 0 0 0 0 0 0 0 0 0 0 0 0 0 0 0 0 0 0 0 0 0 0 0 0 0 0 0 0 0 0 0 0 0 0 0 0 0 0 0
0 0 0 0 0 0 0 0 0 0 0 0 0 0 0 0 0 0 0 0 0 0 0 0 0 0 0 0 0 0 0 0 0 0 0 0 0 0 0 0 0 0 0 0
0 0 0 0 0 0 0 0 0 0 0 0 0 0 0 0 0 0 0 0 0 0 0 0 0 0 0 0 0 0 0 0 0 0 0 0 0 0 0 0 0 0 0 0
0 0 0 0 0 0 0 0 0 0 0 0 0 0 0 0 0 0 0 0 0 0 0 0 0 0 0 0 0 0 0 0 0 0 0 0 0 0 0 0 0 0 0 0
0 0 0 0 0 0 0 0 0 0 0 0 0 0 0 0 0 0 0 0 0 0 0 0 0 0 0 0 0 0 0 0 0 0 0 0 0 0 0 0 0 0 0 0
0 0 0 0 0 0 0 0 0 0 0 0 0 0 0 0 0 0 0 0 0 0 0 0 0 0 0 0 0 0 0 0 0 0 0 0 0 0 0 0 0 0 0 0
0 0 0 0 0 0 0 0 0 0 0 0 0 0 0 0 0 0 0 0 0 0 0 0 0 0 0 0 0 0 0 0 0 0 0 0 0 0 0 0 0 0 0 0
0 0 0 0 0 0 0 0 0 0 0 0 0 0 0 0 0 0 0 0 0 0 0 0 0 0 0 0 0 0 0 0 0 0 0 0 0 0 0 0 0 0 0 0
0 0 0 0 0 0 0 0 0 0 0 0 0 0 0 0 0 0 0 0 0 0 0 0 0 0 0 0 0 0 0 0 0 0 0 0 0 0 0 0 0 0 0 0
0 0 0 0 0 0 0 0 0 0 0 0 0 0 0 0 0 0 0 0 0 0 0 0 0 0 0 0 0 0 0 0 0 0 0 0 0 0 0 0 0 0 0 0
0 0 0 0 0 0 0 0 0 0 0 0 0 0 0 0 0 0 0 0 0 0 0 0 0 0 0 0 0 0 0 0 0 1 0 0 0 0 0 0 0 0 0 0
0 0 0 0 0 0 0 0 0 0 0 0 0 0 0 0 0 0 0 0 0 0 0 0 0 0 0 0 0 0 0 0 0 0 0 0 0 0 0 0 0 0 0 0
0 0 0 0 0 0 0 0 0 0 0 0 0 0 0 0 0 0 0 0 0 0 0 0 0 0 0 0 0 0 0 0 0 0 0 0 0 0 0 0 0 0 0 0
0 0 0 0 0 0 0 0 0 0 0 0 0 0 0 0 0 0 0 0 0 0 0 0 0 0 0 0 0 0 0 0 0 0 0 0 0 0 0 0 1 1 0 0
0 0 0 0 0 0 0 0 0 0 0 0 0 0 0 0 0 0 0 0 0 0 0 0 0 0 0 0 0 0 0 0 0 0 0 0 0 0 0 0 1 1 0 0
0 0 0 0 0 0 0 0 0 0 0 0 0 0 0 0 0 0 0 0 0 0 0 0 0 0 0 0 0 0 0 0 0 0 0 0 0 0 0 0 1 1 0 0
0 0 0 0 0 0 0 0 0 0 0 0 0 0 0 0 0 0 0 0 0 0 0 0 0 0 0 0 0 0 0 0 0 0 0 0 0 0 0 0 0 0 0 0
0 0 0 0 0 0 0 0 0 0 0 0 0 0 0 0 0 0 0 0 0 0 0 0 0 0 0 0 0 0 0 0 0 0 0 0 0 0 0 0 0 0 0 0
0 0 0 0 0 0 0 0 0 0 0 0 0 0 0 0 0 0 0 0 0 0 0 0 0 0 0 0 0 0 0 0 0 0 0 0 0 0 0 0 0 0 0 0
0 0 0 0 0 0 0 0 0 0 0 0 0 0 0 0 0 0 0 0 0 0 0 0 0 0 0 0 0 0 0 0 0 0 0 0 0 0 0 0 0 0 0 0
0 0 0 0 0 0 0 0 0 0 0 0 0 0 0 0 0 0 0 0 0 0 0 0 0 0 0 0 0 0 0 0 0 0 0 0 0 0 0 0 0 0 0 0
0 0 0 0 0 0 0 0 0 0 0 0 0 0 0 0 0 0 0 0 0 0 0 0 0 0 0 0 0 0 0 0 0 0 0 0 0 0 0 0 0 0 0 0
0 0 0 0 0 0 0 0 0 0 0 0 0 0 0 0 0 0 0 0 0 0 0 0 0 0 0 0 0 0 0 0 0 0 0 0 0 0 0 0 0 0 0 0
0 0 0 0 0 0 0 0 0 0 0 0 0 0 0 0 0 0 0 0 0 0 0 0 0 0 0 0 0 0 0 0 0 0 0 0 0 0 0 0 0 0 0 0
0 0 0 0 0 0 0 0 0 0 0 0 0 0 0 0 0 0 0 0 0 0 0 0 0 0 0 0 0 0 0 0 0 0 0 0 0 0 0 0 0 0 0 0
Wind_Speed
7 7 13 15 14 7 5 6 8 7 4 5 12 17 15 12 10 11 12 12 13 15 14 12 15 15 14 15 16 18 18 16 13 11 11 11 11 9 8 8 10 11 10 10
7 16 14 8 10 9 9 10 10 6 5 6 10 17 14 13 13 13 15 15 15 14 12 11 13 14 16 18 18 18 19 18 16 14 12 9 8 7 7 6 9 11 11 11
16 8 10 11 11 13 14 14 11 7 3 4 6 14 14 12 12 14 14 15 15 16 16 14 14 15 16 18 20 18 20 20 19 15 8 6 5 4 7 9 10 12 12 12
13 8 9 11 14 14 16 10 9 7 5 6 5 12 11 10 14 17 17 15 16 17 16 14 14 15 17 19 18 19 19 19 18 16 13 14 13 14 14 10 9 9 12 12
11 10 14 17 16 13 7 5 7 7 7 8 7 10 12 6 13 15 16 17 18 17 16 16 16 17 18 18 17 17 17 17 17 17 18 18 16 13 7 6 9 10 10 12
6 5 11 11 8 9 5 3 1 3 4 13 14 11 15 9 13 11 13 15 16 16 16 16 14 13 14 14 13 14 16 17 17 19 19 19 19 14 10 11 11 10 9 10
7 7 6 5 8 7 8 7 4 6 9 12 8 11 16 10 11 14 15 15 15 14 14 14 13 12 12 13 14 14 16 18 18 19 20 20 19 17 16 14 13 11 10 10
11 10 12 10 13 11 13 13 10 8 8 5 5 14 14 9 10 11 13 12 11 12 12 13 13 13 13 13 14 15 17 18 17 18 19 18 17 14 12 14 11 12 11 11
12 9 6 10 8 13 12 13 9 4 3 5 9 10 12 8 9 11 12 11 12 12 11 11 10 10 10 11 13 15 16 16 16 17 17 16 16 16 14 13 12 10 9 8
7 6 5 6 5 8 10 9 6 8 8 10 9 10 11 8 11 11 11 11 13 11 9 8 7 8 8 9 10 11 13 14 14 14 14 12 14 15 14 11 12 11 10 9
7 6 4 7 13 14 10 12 9 7 7 8 8 11 10 12 11 11 12 11 11 10 8 7 6 5 6 5 6 8 9 10 10 11 11 11 11 11 11 11 11 10 9 10
8 6 7 10 6 8 10 13 14 12 10 7 8 13 7 9 9 9 10 9 7 7 6 5 5 4 4 5 5 6 7 7 8 8 8 9 9 9 10 10 9 9 9 9
10 8 6 4 4 7 10 11 14 10 6 8 10 14 5 5 6 7 8 8 6 5 5 4 4 4 4 4 4 5 6 6 6 6 7 7 8 8 9 9 8 8 8 8
8 7 10 14 9 9 10 13 14 13 11 13 16 17 12 7 7 7 7 6 5 5 5 4 4 4 4 4 4 4 4 5 5 5 6 7 7 7 7 6 6 7 7 7
6 7 9 9 7 8 11 15 17 20 19 17 18 19 20 12 10 9 7 6 6 6 6 6 6 5 4 4 4 4 4 4 5 5 5 5 5 5 5 5 5 5 5 6
6 6 6 9 9 11 12 16 20 22 21 22 19 22 18 10 7 8 8 7 8 9 8 7 6 6 5 5 5 4 4 4 4 5 5 4 4 4 4 4 5 5 5 4
5 5 6 8 6 5 15 19 21 20 19 20 25 27 13 11 11 11 10 9 10 10 9 8 8 7 7 6 5 5 4 4 5 4 4 4 4 4 4 4 5 5 4 4
9 6 4 4 4 14 14 12 16 20 23 22 20 15 13 14 12 9 9 10 10 9 8 8 7 6 5 4 4 4 4 5 5 4 4 4 4 4 4 4 4 4 4 4
12 10 5 5 7 11 11 8 15 18 21 19 21 17 11 8 5 9 8 7 9 9 8 7 6 5 4 5 5 5 5 5 5 4 4 4 5 5 5 5 4 4 4 4
11 10 8 6 7 12 13 7 6 8 16 13 15 16 11 6 9 14 7 6 7 6 4 4 3 3 3 3 6 7 5 5 5 5 4 4 5 5 5 5 4 3 4 4
10 10 13 11 10 12 10 4 8 12 15 8 11 13 11 13 16 11 4 5 5 5 4 2 3 3 3 4 6 6 6 5 4 4 5 5 5 5 5 5 4 5 5 6
11 9 11 9 11 14 4 7 12 10 3 2 6 9 12 13 12 8 6 5 4 3 2 3 3 3 2 3 6 6 5 4 5 6 6 5 5 5 5 6 6 5 6 6
10 10 7 10 11 5 5 7 5 2 3 4 4 6 7 8 8 7 5 4 3 3 3 3 4 4 3 2 4 6 4 5 6 6 6 5 5 5 5 6 6 5 5 5
5 3 4 6 8 6 4 3 3 3 4 4 4 4 3 5 5 4 3 3 3 3 3 3 5 5 3 2 3 4 4 5 6 7 6 5 6 5 5 4 4 4 4 5
6 4 5 9 7 4 5 4 3 3 3 4 3 3 3 3 2 3 3 3 3 2 2 3 4 5 4 3 4 4 4 6 7 7 6 6 5 5 5 4 3 3 2 3
5 6 8 10 7 6 6 4 2 3 4 4 4 4 3 1 2 2 2 2 2 3 3 4 4 5 4 4 4 3 3 5 7 6 6 5 5 4 5 5 5 8 7 7
Wind_Direction
173 189 206 204 206 214 192 208 229 232 231 225 243 254 256 251 247 246 246 243 242 241 238 227 217 211 206 202 198 198 197 196 190 191 195 199 205 203 202 203 201 199 198 195
180 220 217 195 200 216 221 235 245 261 235 230 257 263 260 245 240 241 243 244 243 245 245 232 218 209 204 203 201 200 199 196 194 198 199 200 198 205 206 204 205 203 201 199
205 210 185 191 203 212 224 226 231 241 294 272 284 277 257 253 243 244 242 241 242 239 238 231 220 213 207 205 203 201 201 198 197 193 184 178 182 193 204 209 210 209 205 203
219 215 186 195 207 205 233 220 218 227 237 251 218 274 266 245 249 245 243 242 242 241 238 231 222 217 211 209 205 204 201 200 196 189 188 189 199 207 210 207 209 205 206 206
212 189 190 207 210 197 218 181 201 216 227 253 229 256 272 232 247 248 243 240 240 239 235 231 224 219 214 209 205 203 200 200 195 193 197 198 207 213 205 196 202 207 208 209
219 199 199 205 197 192 174 137 217 227 228 247 228 228 267 223 227 241 241 242 242 240 236 234 230 222 217 210 204 200 198 200 196 196 200 202 208 207 198 201 206 209 210 211
216 219 213 171 166 174 170 165 205 217 220 241 197 214 250 230 222 227 238 243 243 240 236 234 229 222 218 210 204 199 199 202 198 198 202 206 208 207 208 207 209 207 210 212
195 217 199 190 189 185 192 187 201 209 218 246 202 227 249 235 234 237 241 246 248 246 240 234 229 221 216 211 204 200 201 204 200 200 205 207 207 208 212 211 208 209 212 213
194 219 192 195 182 170 185 207 210 223 247 249 241 259 285 253 248 244 246 249 249 248 242 237 233 224 217 210 205 202 203 205 202 202 204 206 206 209 211 209 209 210 211 205
177 205 203 182 164 205 191 171 169 202 212 235 249 243 244 244 234 239 243 246 249 250 248 243 236 226 219 213 208 202 202 204 204 201 202 205 207 210 210 206 208 209 206 199
183 192 195 176 193 193 181 191 199 203 210 215 244 251 225 223 222 228 238 240 244 245 244 241 239 232 221 213 202 200 201 200 199 200 201 201 204 204 203 206 209 207 203 200
184 182 214 217 222 202 202 201 198 209 220 221 242 260 243 225 229 228 239 244 246 248 247 243 240 231 216 208 203 201 199 198 200 197 197 201 201 197 200 205 205 200 200 200
169 183 198 234 236 205 213 211 210 219 220 222 233 257 257 233 247 244 246 254 259 260 258 255 246 233 224 216 207 201 199 198 192 185 187 192 194 195 200 202 199 196 196 195
172 192 203 212 205 189 209 215 211 210 226 234 234 251 264 253 253 257 252 251 254 256 250 243 243 242 234 220 207 201 202 192 181 177 181 189 192 193 195 190 186 188 187 187
183 213 221 237 229 204 222 223 216 220 225 231 241 245 252 244 242 246 246 252 258 256 247 239 238 240 238 231 220 203 195 182 170 168 178 188 181 175 173 174 173 170 172 175
189 212 214 239 234 225 236 232 226 228 227 235 247 252 249 249 242 248 244 238 241 244 241 239 240 237 232 225 217 203 193 178 159 166 176 164 153 150 154 157 152 148 150 150
189 190 202 240 232 226 236 221 219 223 221 222 236 245 248 242 231 231 232 234 238 239 238 237 235 231 226 216 202 195 184 155 148 156 156 151 147 144 143 138 136 143 145 139
189 193 217 219 192 230 238 216 215 226 233 228 237 247 235 238 242 238 225 224 236 239 236 234 230 227 219 199 180 165 147 142 145 149 149 149 145 142 136 133 138 137 134 139
198 186 199 206 226 257 269 223 203 213 236 228 236 246 249 255 262 258 239 229 235 236 233 230 221 212 188 174 162 145 143 140 144 158 161 157 150 147 144 145 143 133 129 124
202 188 194 211 222 235 244 217 198 199 249 232 229 239 239 229 243 250 240 225 234 242 238 227 198 161 157 160 143 143 152 152 167 168 159 149 147 148 149 144 131 116 119 119
185 195 209 219 232 251 253 216 145 190 237 233 226 235 228 225 237 253 233 221 217 218 217 190 150 147 161 146 139 147 153 170 159 132 129 130 133 136 134 124 117 119 117 113
191 194 204 206 225 243 222 159 184 220 257 239 234 228 226 234 243 244 228 217 203 192 178 153 140 132 106 128 139 144 157 141 122 123 123 123 121 122 124 122 118 120 124 122
204 202 198 203 221 234 180 197 221 235 241 253 252 251 234 236 242 240 229 216 197 172 156 134 136 124 93 104 133 144 141 127 127 123 123 121 117 115 119 127 131 130 132 133
233 210 207 236 247 241 233 247 276 274 259 273 271 274 255 234 236 228 214 200 180 159 148 132 129 127 107 75 89 112 120 125 127 128 127 124 123 118 113 113 123 133 141 142
215 193 218 241 247 258 247 237 252 283 304 307 310 296 270 226 223 204 194 187 169 145 131 131 138 136 124 100 92 98 119 128 128 128 125 122 119 121 116 105 101 112 102 129
204 203 213 235 226 216 238 238 250 264 275 280 289 304 310 234 199 171 166 151 140 136 125 120 114 116 115 112 107 100 113 127 130 131 129 127 125 121 120 117 98 80 89 94